{"data":{"norad_id":53574,"intl_designator":"2022-101AZ","name":"STARLINK-4559","alt_names":[],"object_type":"PAYLOAD","status":"ACTIVE","operator":null,"country":"US","launch_date":"2022-08-19","launch_site_code":"AFETR","launch_vehicle":null,"mission":null,"orbit_class":"UNKNOWN","rcs_meters":null,"size_class":null,"mass_kg":null,"dimensions":null,"purposes":["comms"],"wikipedia_slug":null,"has_3d_model":false,"image_url":null,"decayed_at":null,"tle_current":{"epoch":"2026-05-25T00:39:23.229216Z","epoch_age_seconds":75902,"freshness":"FRESH","line1":"1 53574U 22101AZ  26145.02735219 -.00003790  00000+0 -22008-3 0  9992","line2":"2 53574  53.2127  71.1411 0001299  80.5818 279.5321 15.08856462207971","mean_motion":15.08856462,"eccentricity":0.0001299,"inclination_deg":53.2127,"raan_deg":71.1411,"arg_perigee_deg":80.5818,"mean_anomaly_deg":279.5321,"bstar":-0.00022008,"rev_number":20797,"period_min":95.436513430262,"perigee_km":538.794445547,"apogee_km":540.59169779962,"semimajor_km":6917.8300716733,"source":"CELESTRAK","updated_at":"2026-05-25T13:38:17.472001Z"}}}